Regional Weather Roundup
Issued by NWS

Home | Current Version | Previous Version | Text Only | Print | Product List | Glossary On
Versions: 1 2 3 4 5 6 7 8 9 10 11 12 13 14 15 16 17 18 19 20 21 22 23 24 25 26 27 28 29 30 31 32 33 34 35 36 37 38 39 40 41 42 43 44 45 46 47 48 49 50
262
ASUS44 KJAN 142303
RWRMS

MISSISSIPPI HOURLY WEATHER ROUNDUP
NATIONAL WEATHER SERVICE JACKSON MS
500 PM CST SUN FEB 14 2016

NOTE: "FAIR: INDICATES FEW OR NO CLOUDS BELOW 12,000 FEET WITH NO
SIGNIFICANT WEATHER AND/OR OBSTRUCTIONS TO VISIBILITY.

MSZ001>002-007>008-010>013-018>021-025>028-034>036-150000-
NORTHWEST MISSISSIPPI

CITY           SKY/WX    TMP DP  RH WIND       PRES   REMARKS
CLEVELAND      CLOUDY    60  42  52 S12       29.98S
GREENWOOD      CLOUDY    59  36  42 S9        30.01R
GREENVILLE     CLOUDY    61  43  51 S12       29.97S
OLIVE BRANCH   CLOUDY    52  32  46 S9        29.97R
TUNICA         CLOUDY    54  34  47 S12       29.97S
$$

MSZ003>006-009-014>017-022>024-029>033-037>039-150000-
NORTHEAST MISSISSIPPI

CITY           SKY/WX    TMP DP  RH WIND       PRES   REMARKS
COLUMBUS AFB   CLOUDY    56  26  31 SE8       30.04S
CORINTH        CLOUDY    48  21  34 S10       30.00R
GOLDN TRIANGLE MOCLDY    57  27  30 S14       30.04S
STARKVILLE     MOCLDY    59  30  33 S8        30.04S
TUPELO         CLOUDY    51  23  33 SE7       30.03F
$$

MSZ040-058-150000-
CENTRAL MISSISSIPPI

CITY           SKY/WX    TMP DP  RH WIND       PRES   REMARKS
JACKSON INTL   CLOUDY    64  43  46 S13       30.03S
JACKSON HAWKNS CLOUDY    64  42  44 S9        30.02F
MERIDIAN KEY   MOCLDY    62  38  40 S13       30.07F
MERIDIAN NAS   CLOUDY    61  31  32 S9        30.07F
VICKSBURG      CLOUDY    65  46  50 S10       30.00F
$$

MSZ059>079-150000-
SOUTH MISSISSIPPI

CITY           SKY/WX    TMP DP  RH WIND       PRES   REMARKS
BROOKHAVEN     MOCLDY    75  57  53 SE8       30.05F
HATTIESBURG    CLOUDY    63  47  55 SE13      30.10F
MCCOMB         CLOUDY    64  50  60 S13G22    30.04F
NATCHEZ        CLOUDY    64  48  55 S9        30.02S
PINE BELT      CLOUDY    63  45  51 SE14G20   30.10S
$$

MSZ080>082-150000-
COASTAL MISSISSIPPI

CITY           SKY/WX    TMP DP  RH WIND       PRES   REMARKS
BAY ST LOUIS   MOCLDY    63  48  59 E7        30.11S
BILOXI         CLOUDY    62  55  77 E12       30.12S
PASCAGOULA     CLOUDY    61  51  70 SE10      30.14S
GULFPORT       CLOUDY    62  52  69 E15       30.11S
$$




USA.gov is the U.S. government's official web portal to all federal, state and local government web resources and services.